Shelbyville, IN

7:06 AM EST on February 22, 2017 (GMT -0500)
Shelbyville Municipal

Weather History for KGEZ - October, 2010

Change the Weather History Date:

Monday, October 11, 2010

  Actual Average Record
Temperature  
Mean Temperature 69 °F 56 °F  
Max Temperature 86 °F 68 °F 86 °F (2010)
Min Temperature 51 °F 44 °F 31 °F (2012)
Degree Days  
Heating Degree Days 0 10  
Month to date heating degree days 83 94  
Since 1 July heating degree days 128 179  
Cooling Degree Days 4 1  
Month to date cooling degree days 8 11  
Year to date cooling degree days 1329 910  
Growing Degree Days 18 (Base 50)    
Moisture  
Dew Point 46 °F    
Average Humidity 52    
Maximum Humidity 83    
Minimum Humidity 21    
Precipitation  
Precipitation 0.00 in 0.11 in 1.38 in (2001)
Month to date precipitation 0.31 1.18  
Year to date precipitation 33.02 34.63  
Sea Level Pressure  
Sea Level Pressure 29.84 in    
Wind  
Wind Speed 5 mph (SW)    
Max Wind Speed 21 mph    
Max Gust Speed 29 mph    
Visibility 10 miles    
Events      
T = Trace of Precipitation, MM = Missing Value Source: NWS Daily Summary

Daily Weather History Graph

Daily Weather History Graph

Search for Another Location

Airport or City:

Trip Planner

Search our weather history database for the weather conditions in past years. The results will help you decide how hot, cold, wet, or windy it might be!

Date:

Astronomy

Oct. 11, 2010 Rise Set
Actual Time 7:49 AM EDT 7:10 PM EDT
Civil Twilight 7:22 AM EDT 7:37 PM EDT
Nautical Twilight 6:50 AM EDT 8:08 PM EDT
Astronomical Twilight 6:19 AM EDT 8:39 PM EDT
Moon 12:23 PM EDT (10/11) 9:48 PM EDT (10/11)
Length of Visible Light 12h 14m
Length of Day
11h 20m
Waxing Crescent, 19% of the Moon is Illuminated
Oct 11
Waxing Crescent
Oct 14
First Quarter
Oct 22
Full
Oct 30
Last Quarter
Nov 6
New

Hourly Weather History & Observations

Time (EDT) Temp. Dew Point Humidity Pressure Visibility Wind Dir Wind Speed Gust Speed Precip Events Conditions
12:53 AM 55.0 °F 48.0 °F 77% 29.87 in 10.0 mi Calm Calm - N/A   Clear
1:53 AM 55.9 °F 48.9 °F 77% 29.86 in 10.0 mi Calm Calm - N/A   Clear
2:53 AM 54.0 °F 48.0 °F 80% 29.87 in 10.0 mi Calm Calm - N/A   Clear
3:53 AM 53.1 °F 48.0 °F 83% 29.86 in 10.0 mi SSE 3.5 mph - N/A   Clear
4:53 AM 51.1 °F 46.9 °F 86% 29.86 in 10.0 mi Calm Calm - N/A   Clear
6:53 AM 54.0 °F 46.9 °F 77% 29.86 in 10.0 mi South 3.5 mph - N/A   Clear
8:53 AM 55.0 °F 48.9 °F 80% 29.88 in 10.0 mi ENE 3.5 mph - N/A   Unknown
9:53 AM 63.0 °F 50.0 °F 63% 29.88 in 10.0 mi South 4.6 mph - N/A   Clear
10:53 AM 70.0 °F 50.0 °F 49% 29.88 in 10.0 mi SSW 5.8 mph - N/A   Clear
11:53 AM 75.9 °F 48.9 °F 38% 29.87 in 10.0 mi SW 5.8 mph - N/A   Clear
12:53 PM 82.0 °F 48.9 °F 31% 29.86 in 10.0 mi West 6.9 mph 16.1 mph N/A   Clear
1:53 PM 84.9 °F 48.9 °F 29% 29.84 in 10.0 mi West 15.0 mph 20.7 mph N/A   Clear
2:53 PM 84.9 °F 46.9 °F 27% 29.81 in 10.0 mi WSW 17.3 mph 28.8 mph N/A   Clear
3:53 PM 86.0 °F 43.0 °F 22% 29.79 in 10.0 mi WSW 17.3 mph 25.3 mph N/A   Clear
4:53 PM 82.9 °F 43.0 °F 24% 29.80 in 10.0 mi WSW 16.1 mph - N/A   Clear
5:53 PM 82.0 °F 42.1 °F 24% 29.80 in 10.0 mi West 11.5 mph - N/A   Clear
6:53 PM 75.9 °F 42.1 °F 30% 29.81 in 10.0 mi WNW 5.8 mph - N/A   Clear
7:53 PM 70.0 °F 41.0 °F 35% 29.82 in 10.0 mi Calm Calm - N/A   Clear
8:53 PM 64.9 °F 42.1 °F 43% 29.82 in 10.0 mi Calm Calm - N/A   Clear
9:53 PM 63.0 °F 42.1 °F 46% 29.83 in 10.0 mi SSW 3.5 mph - N/A   Clear
10:53 PM 61.0 °F 43.0 °F 52% 29.83 in 10.0 mi Calm Calm - N/A   Clear
11:53 PM 57.0 °F 46.9 °F 69% 29.83 in 10.0 mi Calm Calm - N/A   Clear